TimeCDT,TemperatureF,Dew PointF,Humidity,Sea Level PressureIn,VisibilityMPH,Wind Direction,Wind SpeedMPH,Gust SpeedMPH,PrecipitationIn,Events,Conditions,WindDirDegrees,DateUTC
12:15 AM,40.6,33.8,77,30.07,10.0,NW,8.1,-,N/A,,Overcast,320,2012-10-10 05:15:00
12:35 AM,38.8,33.3,80,30.08,10.0,NW,5.8,-,N/A,,Mostly Cloudy,320,2012-10-10 05:35:00
12:55 AM,37.2,32.4,83,30.08,10.0,WNW,5.8,-,N/A,,Scattered Clouds,300,2012-10-10 05:55:00
1:15 AM,36.0,32.0,86,30.09,10.0,NW,6.9,-,N/A,,Clear,310,2012-10-10 06:15:00
1:35 AM,36.0,31.5,84,30.10,10.0,WNW,5.8,-,N/A,,Clear,290,2012-10-10 06:35:00
1:55 AM,35.1,30.9,85,30.10,10.0,WNW,5.8,-,N/A,,Clear,290,2012-10-10 06:55:00
2:15 AM,34.2,30.2,85,30.10,10.0,West,6.9,-,N/A,,Clear,280,2012-10-10 07:15:00
2:35 AM,32.9,29.3,87,30.11,10.0,West,6.9,-,N/A,,Clear,270,2012-10-10 07:35:00
2:55 AM,32.0,28.9,88,30.11,10.0,West,6.9,-,N/A,,Clear,270,2012-10-10 07:55:00
3:15 AM,31.5,28.2,88,30.11,10.0,West,6.9,-,N/A,,Clear,270,2012-10-10 08:15:00
3:35 AM,31.1,28.0,88,30.12,10.0,West,6.9,-,N/A,,Clear,270,2012-10-10 08:35:00
3:55 AM,30.6,27.7,89,30.12,10.0,West,5.8,-,N/A,,Clear,270,2012-10-10 08:55:00
4:15 AM,30.0,27.5,90,30.12,10.0,West,5.8,-,N/A,,Clear,270,2012-10-10 09:15:00
4:35 AM,30.0,27.5,90,30.13,10.0,West,5.8,-,N/A,,Clear,260,2012-10-10 09:35:00
4:55 AM,30.2,27.5,90,30.13,10.0,West,5.8,-,N/A,,Clear,260,2012-10-10 09:55:00
5:15 AM,31.1,28.2,89,30.14,10.0,West,5.8,-,N/A,,Clear,260,2012-10-10 10:15:00
5:35 AM,32.0,28.4,87,30.15,10.0,West,5.8,-,N/A,,Clear,260,2012-10-10 10:35:00
5:55 AM,31.1,27.5,87,30.15,10.0,West,5.8,-,N/A,,Clear,260,2012-10-10 10:55:00
6:15 AM,29.3,26.4,89,30.15,10.0,West,5.8,-,N/A,,Clear,260,2012-10-10 11:15:00
6:35 AM,28.8,25.9,89,30.17,10.0,West,5.8,-,N/A,,Clear,270,2012-10-10 11:35:00
6:55 AM,28.6,25.9,90,30.17,10.0,WSW,4.6,-,N/A,,Clear,250,2012-10-10 11:55:00
7:15 AM,28.2,25.5,90,30.18,10.0,West,5.8,-,N/A,,Clear,260,2012-10-10 12:15:00
7:35 AM,28.2,25.3,89,30.19,10.0,West,4.6,-,N/A,,Clear,280,2012-10-10 12:35:00
7:55 AM,29.3,26.6,90,30.19,10.0,West,4.6,-,N/A,,Clear,260,2012-10-10 12:55:00
8:35 AM,34.0,30.2,86,30.20,10.0,West,5.8,-,N/A,,Clear,260,2012-10-10 13:35:00
8:55 AM,36.3,31.5,83,30.21,10.0,West,6.9,-,N/A,,Clear,270,2012-10-10 13:55:00
9:15 AM,38.3,31.6,77,30.21,10.0,West,10.4,-,N/A,,Clear,270,2012-10-10 14:15:00
9:35 AM,40.8,32.2,71,30.22,10.0,West,11.5,-,N/A,,Clear,280,2012-10-10 14:35:00
9:55 AM,42.8,32.7,68,30.22,10.0,West,10.4,-,N/A,,Clear,280,2012-10-10 14:55:00
10:15 AM,44.8,34.0,66,30.22,10.0,West,10.4,-,N/A,,Clear,280,2012-10-10 15:15:00
10:35 AM,46.4,34.2,62,30.23,10.0,WNW,10.4,-,N/A,,Clear,290,2012-10-10 15:35:00
10:55 AM,48.2,33.4,57,30.23,10.0,WNW,13.8,-,N/A,,Clear,290,2012-10-10 15:55:00
11:15 AM,50.2,32.5,51,30.23,10.0,West,13.8,17.3,N/A,,Clear,280,2012-10-10 16:15:00
11:55 AM,52.2,31.1,45,30.23,10.0,West,11.5,19.6,N/A,,Clear,280,2012-10-10 16:55:00
12:15 PM,53.4,29.8,40,30.22,10.0,West,13.8,-,N/A,,Clear,280,2012-10-10 17:15:00
12:35 PM,53.2,27.7,37,30.22,10.0,WNW,11.5,19.6,N/A,,Clear,300,2012-10-10 17:35:00
12:55 PM,54.5,26.6,34,30.22,10.0,WNW,12.7,24.2,N/A,,Clear,290,2012-10-10 17:55:00
1:15 PM,55.4,25.5,32,30.21,10.0,WNW,13.8,21.9,N/A,,Clear,300,2012-10-10 18:15:00
1:35 PM,55.8,23.4,29,30.20,10.0,NW,13.8,19.6,N/A,,Clear,320,2012-10-10 18:35:00
1:55 PM,56.3,23.5,28,30.20,10.0,NW,15.0,19.6,N/A,,Clear,310,2012-10-10 18:55:00
2:15 PM,56.3,22.1,27,30.19,10.0,WNW,8.1,19.6,N/A,,Clear,300,2012-10-10 19:15:00
2:35 PM,56.5,23.0,27,30.18,10.0,West,10.4,18.4,N/A,,Clear,280,2012-10-10 19:35:00
2:55 PM,57.2,22.8,27,30.18,10.0,NW,9.2,-,N/A,,Clear,320,2012-10-10 19:55:00
3:15 PM,57.6,22.5,26,30.17,10.0,West,8.1,17.3,N/A,,Clear,270,2012-10-10 20:15:00
3:35 PM,57.4,22.3,26,30.17,10.0,WNW,5.8,-,N/A,,Clear,300,2012-10-10 20:35:00
3:55 PM,57.0,21.9,26,30.15,10.0,SW,3.5,-,N/A,,Clear,230,2012-10-10 20:55:00
4:15 PM,58.1,21.2,24,30.15,10.0,NW,6.9,-,N/A,,Clear,310,2012-10-10 21:15:00
4:35 PM,58.5,19.9,22,30.14,10.0,West,10.4,-,N/A,,Clear,280,2012-10-10 21:35:00
4:55 PM,58.5,19.4,22,30.13,10.0,West,5.8,-,N/A,,Clear,260,2012-10-10 21:55:00
5:15 PM,58.1,19.2,22,30.13,10.0,WSW,6.9,-,N/A,,Clear,250,2012-10-10 22:15:00
5:35 PM,57.4,19.2,23,30.13,10.0,WSW,5.8,-,N/A,,Clear,250,2012-10-10 22:35:00
5:55 PM,56.5,19.4,24,30.12,10.0,WSW,4.6,-,N/A,,Clear,250,2012-10-10 22:55:00
6:15 PM,54.0,20.1,27,30.12,2.5,Calm,Calm,-,N/A,,Haze,0,2012-10-10 23:15:00
6:35 PM,45.1,25.9,47,30.12,10.0,SW,3.5,-,N/A,,Clear,220,2012-10-10 23:35:00
6:55 PM,41.2,26.1,55,30.12,10.0,SSW,3.5,-,N/A,,Clear,210,2012-10-10 23:55:00
7:15 PM,40.6,24.6,53,30.12,10.0,South,3.5,-,N/A,,Clear,190,2012-10-11 00:15:00
7:35 PM,41.5,23.5,49,30.13,10.0,SSE,4.6,-,N/A,,Clear,160,2012-10-11 00:35:00
7:55 PM,45.0,21.7,40,30.13,10.0,SSE,5.8,-,N/A,,Clear,160,2012-10-11 00:55:00
8:15 PM,43.7,21.9,42,30.13,10.0,SSE,5.8,-,N/A,,Clear,160,2012-10-11 01:15:00
8:35 PM,42.8,22.1,44,30.12,10.0,SSE,6.9,-,N/A,,Clear,160,2012-10-11 01:35:00
8:55 PM,41.5,22.8,47,30.13,10.0,SSE,6.9,-,N/A,,Clear,160,2012-10-11 01:55:00
9:15 PM,40.1,23.0,51,30.12,10.0,South,8.1,-,N/A,,Clear,170,2012-10-11 02:15:00
9:35 PM,39.4,23.4,53,30.12,10.0,South,6.9,-,N/A,,Clear,180,2012-10-11 02:35:00
9:55 PM,38.3,23.7,56,30.12,10.0,South,6.9,-,N/A,,Clear,180,2012-10-11 02:55:00
10:15 PM,37.6,24.3,59,30.12,10.0,South,6.9,-,N/A,,Clear,190,2012-10-11 03:15:00
10:35 PM,36.9,24.6,61,30.12,10.0,South,6.9,-,N/A,,Clear,190,2012-10-11 03:35:00
10:55 PM,37.0,25.3,63,30.12,10.0,South,6.9,-,N/A,,Clear,180,2012-10-11 03:55:00
11:15 PM,37.8,25.7,62,30.12,10.0,South,6.9,-,N/A,,Clear,190,2012-10-11 04:15:00
11:35 PM,37.0,26.1,65,30.12,10.0,South,6.9,-,N/A,,Clear,190,2012-10-11 04:35:00
11:55 PM,37.4,26.2,64,30.11,10.0,South,6.9,-,N/A,,Clear,180,2012-10-11 04:55:00